Lapse_Rate
7.6 7.5 7.4 7.2 7.1 7.4 7.4 7.6 7.5 7.3 7.0 6.8 6.8 6.6 6.5 6.6 6.6 6.6 6.5 6.5 6.3 6.2 6.0 6.0 5.8 5.8 5.7 5.6 5.4 5.2 5.0 4.8 4.8 4.8 5.1 5.1 5.3 5.4 5.3 5.2 5.3 5.2 4.9
7.2 7.4 7.1 7.0 7.1 7.2 7.5 7.5 7.8 7.5 7.3 7.1 6.8 6.7 6.6 6.6 6.5 6.4 6.6 6.8 6.5 6.2 6.0 6.1 6.0 5.8 5.6 5.6 5.6 5.4 5.1 5.0 5.0 5.0 5.1 5.1 5.2 5.4 5.4 5.4 5.3 5.1 5.1
7.6 7.5 6.6 5.2 7.0 7.3 7.6 7.7 7.8 7.8 7.4 7.3 6.9 6.8 7.0 6.8 6.8 6.6 6.1 6.3 6.6 6.6 6.3 5.9 5.8 5.9 5.7 5.5 5.4 5.6 5.5 5.4 5.3 5.3 5.3 5.3 5.3 5.3 5.4 5.6 5.4 5.3 5.0
6.8 6.8 6.7 6.4 5.1 6.5 7.1 7.9 7.6 7.7 7.5 7.5 7.3 7.1 7.1 7.1 6.8 6.6 6.2 5.9 6.2 6.4 6.4 6.2 6.2 6.1 6.0 5.7 5.6 5.4 5.3 5.3 5.3 5.3 5.1 5.4 5.4 5.5 5.5 5.4 5.2 5.2 5.1
7.0 6.4 6.5 5.9 5.9 5.7 6.5 7.8 7.4 7.5 7.5 7.6 7.5 7.5 7.3 7.1 6.8 6.6 6.7 6.3 5.9 6.0 6.2 6.1 6.0 6.0 6.1 6.0 5.8 5.6 5.5 5.3 5.4 5.4 5.3 5.2 5.4 5.6 5.4 5.3 5.2 5.1 5.1
7.0 7.4 7.2 7.5 6.4 5.9 6.4 7.2 7.4 7.2 7.3 7.3 7.3 7.4 7.4 7.1 7.0 6.8 6.7 6.2 6.3 6.5 5.9 5.9 6.1 5.9 5.9 5.9 5.9 5.9 5.8 5.4 5.3 5.3 5.2 5.4 5.4 5.1 5.2 5.3 5.4 5.3 5.3
8.0 8.3 7.4 6.8 5.5 5.9 6.2 6.3 6.9 7.0 6.9 7.1 7.2 7.2 7.3 7.3 7.3 7.0 6.6 6.1 6.0 6.2 6.2 6.0 5.7 5.4 5.8 6.1 5.8 5.7 5.7 5.5 5.4 5.3 5.4 5.3 5.4 5.5 5.4 5.5 5.6 5.6 5.3
6.5 6.0 5.5 5.0 6.3 6.3 5.1 5.4 5.9 6.1 6.1 6.4 7.0 7.2 7.1 7.1 7.1 7.0 6.9 6.6 6.3 6.0 6.0 5.7 5.6 5.0 5.1 5.6 5.7 5.8 6.1 6.0 5.8 5.8 5.6 5.5 5.4 5.4 5.5 5.5 5.6 5.5 5.7
5.8 5.4 5.4 5.7 5.7 5.5 5.6 5.0 4.9 5.0 5.6 6.1 6.4 6.8 6.9 7.1 7.1 7.1 7.2 6.9 6.9 6.5 6.3 5.8 5.7 5.7 5.5 5.5 5.5 5.6 5.7 5.6 5.8 5.9 6.0 5.7 5.4 5.4 5.4 5.5 5.5 5.5 5.6
5.6 5.4 5.3 5.6 6.0 5.9 5.5 5.1 4.9 5.3 5.6 6.2 6.4 6.2 6.4 6.9 7.1 7.4 7.0 6.9 6.7 6.6 6.4 6.1 5.8 5.8 5.8 5.9 5.8 5.8 5.9 6.1 6.0 5.7 5.6 5.9 5.6 5.3 5.3 5.2 5.5 5.5 5.6
5.8 5.5 5.4 5.7 5.9 5.6 5.3 5.4 5.7 5.8 5.7 5.7 5.8 5.9 6.7 7.3 7.2 7.2 7.1 6.6 6.4 6.3 6.2 6.2 5.9 5.6 5.4 5.9 5.5 5.7 5.9 5.8 5.9 6.1 5.7 5.6 5.7 5.4 5.4 5.3 5.5 5.4 5.7
6.4 5.8 5.8 5.8 6.0 6.1 6.1 6.0 6.2 6.0 5.6 5.4 5.7 6.1 6.8 7.1 7.3 7.2 7.1 6.8 6.3 6.0 5.9 5.8 6.0 6.1 5.8 5.6 5.7 5.6 5.8 5.7 5.6 5.8 6.1 5.9 5.8 5.5 5.2 5.4 5.4 5.3 5.5
6.5 6.5 6.2 6.1 6.3 6.7 6.8 7.0 7.1 6.7 6.5 6.6 6.8 7.0 7.2 7.2 7.2 7.2 7.0 6.6 6.2 5.9 5.9 6.1 6.1 6.0 6.2 6.0 5.8 5.6 5.6 5.4 5.6 5.5 5.7 6.1 6.0 5.7 5.3 5.2 5.2 5.4 5.4
6.7 6.8 6.6 6.6 6.8 6.9 7.2 7.3 7.2 7.2 7.2 7.1 7.1 7.1 7.1 7.1 7.1 6.7 6.6 6.7 6.3 6.2 5.9 5.9 6.1 6.2 6.1 6.1 5.6 5.4 5.4 5.6 5.7 5.8 5.7 5.8 5.9 6.1 5.6 5.1 5.3 5.5 5.4
6.7 6.7 6.7 6.7 6.8 6.9 7.1 6.9 7.0 6.9 6.9 7.0 6.9 6.8 6.7 6.5 6.4 6.4 6.3 5.7 5.6 5.7 5.9 5.8 6.3 6.1 5.8 5.9 5.5 5.1 5.0 5.0 5.3 5.3 5.5 5.8 5.8 5.7 6.0 5.4 5.3 5.5 5.4
6.2 6.2 6.2 6.1 6.0 6.1 6.4 6.5 6.6 6.4 6.4 6.5 6.3 6.3 5.8 5.8 5.4 5.4 5.6 5.5 5.4 5.1 5.2 5.8 6.0 6.1 5.6 5.4 4.8 4.7 4.6 4.7 4.7 4.9 5.3 5.8 5.6 5.4 5.8 5.4 5.5 5.4 5.6
5.7 5.7 5.8 5.9 5.9 5.7 5.6 5.9 5.9 5.7 5.7 5.6 5.7 5.7 5.8 5.4 5.2 5.1 4.8 4.7 4.8 4.9 5.2 5.6 5.7 5.3 5.0 4.9 4.8 4.9 4.9 4.7 4.7 5.2 5.2 5.6 5.7 5.4 5.8 5.6 5.4 5.5 5.5
5.6 5.6 5.7 5.6 5.6 5.5 4.9 5.6 5.8 5.7 5.5 5.4 5.5 5.3 5.2 5.2 4.9 4.6 4.6 4.8 4.9 5.0 5.2 5.4 5.4 4.9 4.9 4.9 4.7 4.6 4.5 4.6 4.8 4.9 4.9 5.2 5.3 5.3 5.3 5.7 5.7 5.9 5.8
5.9 5.9 5.7 5.6 5.7 5.6 5.5 5.5 5.4 5.1 5.4 5.1 5.0 5.2 5.2 5.4 5.5 5.1 4.9 5.1 5.0 5.1 5.2 5.5 5.3 5.3 5.2 4.9 5.1 4.4 4.5 4.7 5.1 4.7 4.7 4.8 4.9 4.9 5.2 5.8 5.9 5.9 5.9
6.2 6.2 6.2 6.2 6.2 5.9 4.9 5.3 5.0 5.4 5.1 5.2 5.2 5.2 5.3 5.4 5.6 5.7 5.6 5.5 5.2 5.2 5.3 5.4 5.2 5.1 5.1 5.0 4.9 5.0 5.1 4.4 4.6 4.7 4.5 4.8 4.7 5.1 5.1 5.6 5.5 5.5 6.0
6.5 5.6 5.8 6.3 5.6 5.6 5.4 5.3 5.9 6.0 6.0 6.0 5.8 5.6 5.4 5.4 5.4 5.2 5.5 5.6 5.4 5.5 5.4 5.2 5.3 5.3 5.2 5.1 5.2 4.8 4.9 4.4 4.2 4.4 4.7 4.8 4.6 4.5 4.8 4.9 5.5 5.8 5.6
6.2 5.3 5.3 5.4 5.4 5.6 5.6 5.6 6.0 6.1 6.0 6.0 6.1 6.1 5.9 5.8 5.6 5.6 5.5 5.4 5.1 5.4 5.3 5.1 5.5 5.7 5.7 5.2 5.2 5.0 4.7 4.4 4.1 4.4 4.6 4.5 4.3 4.4 4.5 4.9 5.1 5.2 5.4
6.1 6.0 5.8 5.4 5.4 5.5 5.9 5.9 5.9 5.9 6.1 6.0 6.0 5.9 5.6 5.5 5.4 5.4 5.3 5.1 4.8 4.7 4.4 4.9 5.4 5.2 4.5 4.3 4.6 4.5 4.6 4.6 4.5 4.5 4.6 4.6 4.6 4.5 4.7 4.8 5.0 5.3 5.6
5.6 6.1 5.8 5.8 5.6 6.1 6.0 6.1 6.1 6.1 6.1 6.0 6.0 5.7 5.8 5.8 5.6 5.5 5.1 5.1 4.9 4.5 4.5 4.7 4.7 4.8 4.5 4.4 4.6 4.6 4.6 4.5 4.5 4.5 4.7 4.5 4.3 4.6 5.2 5.6 5.8 5.5 5.6
5.5 5.4 5.4 6.1 5.8 6.4 6.4 6.3 6.3 6.0 5.9 5.8 5.7 5.6 5.6 5.7 5.3 5.4 5.3 5.2 5.4 5.2 4.9 4.7 4.7 4.6 4.4 4.5 4.6 4.8 4.9 5.1 5.1 5.0 4.8 5.0 5.1 5.7 6.0 5.9 5.7 5.6 5.6
5.6 5.3 5.4 5.8 5.9 5.8 6.3 5.9 6.1 6.0 6.0 5.8 5.8 5.8 5.8 5.8 5.8 5.8 5.8 5.7 5.7 5.4 5.0 5.5 5.4 5.4 5.3 5.2 5.7 5.7 5.5 5.6 5.5 5.5 6.0 6.1 5.9 5.7 5.6 5.6 5.5 5.5 5.5
Wind_Speed
16 18 17 16 16 12 10 12 11 10 8 7 10 10 11 10 10 10 8 6 8 7 8 8 9 9 8 7 7 7 6 6 6 5 4 6 6 7 8 9 7 5 6
5 16 15 15 14 12 11 11 10 11 7 9 11 11 10 9 9 9 10 8 9 8 9 8 8 7 10 8 8 9 9 7 7 9 6 5 7 5 4 4 2 6 5
13 10 6 16 1 8 10 10 9 10 10 10 10 12 11 9 8 7 9 11 9 8 8 9 8 9 8 7 8 4 7 6 7 7 5 5 5 5 3 3 2 2 4
8 9 7 8 17 18 5 7 9 10 10 11 9 12 11 10 11 8 10 11 8 8 8 9 7 6 8 9 8 9 7 7 6 6 6 4 5 5 4 2 2 0 2
11 9 8 11 9 14 7 9 11 10 9 9 10 10 7 10 9 9 10 11 10 10 7 10 10 6 6 1 6 7 8 8 7 6 6 5 5 4 7 4 4 3 1
7 9 14 14 8 13 17 13 10 9 10 10 10 11 10 10 7 10 8 10 8 11 9 9 8 10 7 7 6 5 5 8 7 7 9 7 8 8 6 5 4 3 2
3 8 9 7 16 14 17 12 10 10 10 11 12 12 12 11 12 9 8 10 12 7 9 9 8 13 14 12 9 7 7 6 5 6 7 5 4 8 9 9 6 5 4
5 7 7 4 8 8 9 10 9 8 9 8 10 11 11 10 12 13 12 11 11 13 9 9 11 11 8 10 11 12 13 12 10 9 8 7 6 6 10 9 10 7 1
5 5 2 2 1 5 5 4 3 8 8 6 9 10 12 12 10 13 11 12 13 14 13 11 12 13 11 10 10 11 11 8 9 7 10 7 6 6 8 8 6 7 2
7 4 2 1 1 5 4 5 5 7 7 7 9 9 9 12 10 12 10 10 12 12 13 12 11 14 10 13 12 12 10 10 11 10 5 5 6 5 12 10 10 8 3
5 6 4 3 1 3 5 3 3 6 6 5 10 8 9 13 11 12 14 11 11 11 11 11 12 15 12 14 14 11 11 8 9 8 8 8 9 8 9 9 9 9 9
7 5 5 7 5 6 6 6 4 5 6 7 8 9 10 11 10 11 14 16 13 12 14 10 9 14 16 15 10 12 10 10 7 9 10 7 8 8 8 8 9 9 9
7 7 7 6 6 5 6 7 8 6 6 6 6 7 7 7 9 19 18 19 18 14 14 11 10 12 19 14 13 10 10 9 11 9 9 9 6 6 3 8 7 10 9
9 7 6 5 5 6 6 4 5 6 7 7 7 8 9 6 6 7 6 9 12 8 12 12 14 8 12 13 12 8 12 11 10 8 10 9 8 5 6 4 5 6 4
8 8 6 6 3 2 3 5 7 6 3 6 8 9 9 10 4 7 6 8 5 4 6 10 6 8 9 9 12 11 9 9 5 6 7 8 7 7 7 7 6 7 7
10 8 7 8 8 1 2 4 10 10 6 7 8 7 9 10 14 16 14 11 12 11 6 8 6 8 9 10 10 9 7 9 7 7 6 7 8 7 8 6 6 5 5
8 9 8 8 7 7 5 4 6 3 7 7 9 9 10 12 14 13 15 12 13 5 7 9 8 9 10 8 9 9 11 9 7 3 4 3 4 6 7 6 6 5 4
10 11 8 8 8 8 7 7 7 7 7 4 8 10 8 9 12 16 14 6 4 4 6 7 10 9 9 9 7 4 6 5 5 4 4 4 5 5 5 4 4 4 5
10 8 8 9 9 8 7 6 6 5 5 6 6 1 1 5 7 4 8 4 5 4 6 6 8 8 7 6 6 7 8 6 5 5 5 4 5 5 6 6 4 5 5
9 4 5 7 7 8 6 4 3 5 4 6 7 7 8 4 4 3 1 3 1 3 3 2 4 6 8 8 8 8 8 8 6 6 5 4 5 6 5 6 7 6 6
8 9 8 8 9 6 8 4 3 4 4 4 5 6 7 6 6 6 4 3 2 1 2 3 6 7 8 9 8 9 8 8 5 6 6 4 5 5 5 4 5 4 6
10 10 10 10 10 8 8 6 6 5 5 4 4 5 7 4 6 5 5 5 5 6 5 7 6 7 6 8 8 11 10 9 6 6 5 4 5 5 6 6 6 7 7
6 8 8 11 5 9 9 7 5 4 4 4 4 5 4 4 4 5 5 5 5 5 5 7 9 8 7 5 5 7 8 8 6 5 6 6 7 7 6 5 5 5 7
1 3 6 6 7 7 7 6 6 5 4 3 4 4 3 3 4 4 4 4 4 5 5 6 6 9 6 5 5 9 9 9 8 5 4 5 5 4 4 5 7 7 6
5 5 6 6 6 7 5 3 3 3 2 3 2 3 3 3 3 3 3 2 3 3 6 5 5 7 9 10 9 10 8 9 8 12 7 5 6 7 7 7 6 6 6
3 5 4 4 7 4 4 4 3 1 1 1 1 3 4 3 3 5 3 2 3 4 5 6 7 9 10 10 10 9 10 9 8 7 5 6 8 6 6 7 10 7 7
Wind_Direction
193 196 196 191 190 185 186 190 199 208 177 219 197 215 207 205 215 208 223 230 202 222 229 216 226 217 215 220 229 231 237 232 244 267 228 190 210 213 210 213 193 175 143
235 206 195 187 177 182 179 205 190 202 182 201 208 215 222 207 205 223 222 214 212 219 231 243 246 214 210 216 222 219 224 214 229 250 223 201 212 225 200 167 69 36 97
65 39 21 26 233 190 176 203 205 197 197 200 208 212 219 224 191 202 230 233 226 208 224 221 223 235 232 247 246 196 222 228 239 247 247 229 188 134 90 86 96 100 110
106 107 98 40 345 300 214 226 211 205 197 212 204 210 217 221 236 181 218 242 231 219 226 234 221 228 218 228 236 237 230 230 236 243 256 226 190 174 168 145 141 55 150
130 143 148 147 180 270 247 229 226 220 211 205 209 205 213 232 232 199 203 224 234 238 246 228 227 216 104 338 234 221 222 225 223 231 224 207 193 165 187 180 183 146 102
148 166 166 188 201 225 239 213 213 220 219 226 217 225 209 222 218 152 214 245 187 214 231 248 265 153 177 191 225 255 233 233 243 231 246 215 184 201 191 175 139 151 187
150 146 163 187 231 226 226 220 192 200 212 218 223 224 223 225 149 171 188 238 264 211 214 218 222 236 199 196 196 201 228 218 231 293 259 264 267 192 180 174 164 169 185
36 39 72 164 229 235 241 226 217 218 207 234 241 239 228 219 162 172 190 221 240 251 245 212 228 257 207 214 187 203 220 212 214 216 223 239 232 199 181 186 180 163 36
50 103 140 191 346 283 214 255 280 265 239 240 245 232 237 235 175 188 189 223 236 241 244 243 222 230 246 194 237 205 223 221 129 120 105 98 81 148 181 150 151 162 138
32 28 23 130 1 271 265 218 218 241 248 229 248 243 244 254 190 179 198 233 235 233 230 236 237 238 223 189 212 230 223 218 223 188 197 146 173 160 167 185 172 185 152
20 337 350 357 9 268 321 308 282 269 277 267 252 257 260 235 225 181 198 233 242 237 234 235 234 200 192 198 213 223 216 213 220 197 202 206 196 168 193 204 178 193 193
37 15 4 343 345 344 318 284 245 236 237 238 244 250 239 236 228 205 202 216 240 259 264 225 234 181 188 196 202 220 176 196 205 209 204 211 201 198 193 184 200 205 219
18 16 359 351 343 332 314 321 300 264 230 247 248 255 264 253 231 207 204 208 218 237 254 281 3 195 184 188 203 173 192 207 214 215 207 202 202 194 165 174 195 196 201
352 348 343 338 343 359 321 308 297 299 315 312 303 294 295 281 272 294 242 214 228 229 248 260 262 232 191 193 178 188 207 211 224 214 205 197 179 171 174 182 198 173 173
335 309 289 314 224 268 304 329 319 317 328 304 298 301 302 303 347 348 346 334 329 328 286 251 221 197 196 187 195 188 205 220 212 221 188 165 176 170 172 193 200 191 194
321 321 332 313 306 249 293 293 204 226 252 213 231 234 277 287 318 333 331 328 314 305 288 252 210 206 198 186 188 183 196 224 213 208 166 178 175 187 174 184 200 208 202
323 310 317 287 302 304 316 312 319 224 240 245 236 217 218 268 286 280 287 293 279 259 231 230 214 210 209 193 186 190 188 196 218 104 115 157 166 167 163 182 176 174 134
316 274 276 303 314 300 325 2 307 324 321 322 208 237 255 255 280 276 260 248 236 207 226 221 204 197 200 189 188 149 139 108 142 115 137 141 109 99 83 130 162 166 138
312 315 338 313 300 312 293 302 295 316 317 320 333 159 312 261 279 285 193 223 214 209 220 218 209 188 177 143 124 120 120 113 99 104 98 115 120 154 142 139 134 124 133
310 259 239 293 288 284 263 217 309 292 305 324 333 2 355 339 339 358 286 329 220 238 217 208 147 127 126 125 125 121 120 119 122 115 113 134 138 146 139 148 154 154 182
310 297 230 264 264 297 318 295 348 314 306 321 292 53 15 5 13 15 27 33 24 23 165 141 140 134 126 120 123 123 122 120 128 129 121 147 175 163 144 129 142 141 148
301 331 334 324 334 320 354 324 2 327 318 350 348 62 38 27 23 30 37 35 41 50 52 82 78 82 98 109 118 116 113 110 116 113 111 136 142 140 152 158 177 190 186
353 318 331 336 330 360 328 26 342 320 16 37 20 4 5 59 41 17 32 36 46 53 70 88 90 81 66 72 96 113 125 132 140 151 163 184 182 175 172 186 189 173 191
133 328 313 4 360 356 355 17 342 32 63 52 54 43 43 26 55 48 36 48 42 56 66 92 99 110 125 147 139 138 142 148 161 168 137 138 155 162 178 181 184 188 144
31 335 337 343 9 18 347 359 65 115 129 148 119 95 87 78 81 75 56 37 101 108 122 85 95 124 137 136 126 101 81 84 146 150 168 168 146 193 174 187 172 164 154
11 325 312 59 323 348 5 358 3 321 249 182 243 105 87 82 91 120 91 102 125 124 146 138 159 153 142 133 129 101 87 93 93 73 170 156 171 193 179 194 178 180 172